This is the latest recevied weather packets stored in our database for station/object W4SNA-4. If no packets are shown the sender has not sent any weather packets the latest 10 day(s).
| Time | Temp. | Humidity | Pressure | Rain* | Wind** | Luminosity | Snow |
|---|---|---|---|---|---|---|---|
| 1777731789 | 11.67° C | 70% | 1008.2 hPa | 0 mm | - | - | - |
| 1777731490 | 11.67° C | 70% | 1008.2 hPa | 0 mm | - | - | - |
| 1777731190 | 11.67° C | 73% | 1008.2 hPa | 0 mm | - | - | - |
| 1777730590 | 11.67° C | 74% | 1008.3 hPa | 0 mm | - | - | - |
| 1777730290 | 11.67° C | 72% | 1008.3 hPa | 0 mm | - | - | - |
| 1777729989 | 11.67° C | 71% | 1008.3 hPa | 0 mm | - | - | - |
| 1777729690 | 11.67° C | 71% | 1008.3 hPa | 0 mm | - | - | - |
| 1777729390 | 11.67° C | 71% | 1008.3 hPa | 0 mm | - | - | - |
| 1777729089 | 11.67° C | 72% | 1007.9 hPa | 0 mm | - | - | - |
| 1777728790 | 11.67° C | 73% | 1007.9 hPa | 0 mm | - | - | - |
| 1777728490 | 11.67° C | 74% | 1007.9 hPa | 0 mm | - | - | - |
| 1777728189 | 11.11° C | 73% | 1007.9 hPa | 0 mm | - | - | - |
| 1777727893 | 11.11° C | 75% | 1007.9 hPa | 0 mm | - | - | - |
| 1777727590 | 11.11° C | 75% | 1007.9 hPa | 0 mm | - | - | - |
| 1777727289 | 11.11° C | 75% | 1007.8 hPa | 0 mm | - | - | - |
| 1777726990 | 11.11° C | 75% | 1007.8 hPa | 0 mm | - | - | - |
| 1777726689 | 11.11° C | 76% | 1007.8 hPa | 0 mm | - | - | - |
| 1777726389 | 11.11° C | 74% | 1007.9 hPa | 0 mm | - | - | - |
| 1777726090 | 11.11° C | 74% | 1007.9 hPa | 0 mm | - | - | - |
| 1777725789 | 11.11° C | 74% | 1007.9 hPa | 0 mm | - | - | - |
| 1777725490 | 11.11° C | 74% | 1007.5 hPa | 0 mm | - | - | - |
| 1777725190 | 11.11° C | 74% | 1007.5 hPa | 0 mm | - | - | - |
| 1777724889 | 11.11° C | 74% | 1007.5 hPa | 0 mm | - | - | - |
| 1777724590 | 11.11° C | 73% | 1006.9 hPa | 0 mm | - | - | - |
| 1777724290 | 11.11° C | 74% | 1006.9 hPa | 0 mm | - | - | - |
* Rain latest hour (hover to see other rain measurements)
** Current wind speed in m/s (hover to see current wind gust speed)